Hourly Weather Koziol

Today, 24 October, Saturday

Time Temperature Precipitation Wind Pressure Humidity
00:00 +11°C° 0 mm 1 mps 746 mmHg 97%
01:00 +11°C° 0 mm 1 mps 746 mmHg 98%
02:00 +12°C° 2.6 mm 1 mps 746 mmHg 97%
03:00 +12°C° 2.6 mm 2 mps 745 mmHg 97%
04:00 +12°C° 2.6 mm 2 mps 745 mmHg 97%
05:00 +12°C° 1.5 mm 2 mps 745 mmHg 95%
06:00 +12°C° 1.5 mm 2 mps 745 mmHg 93%
07:00 +12°C° 1.5 mm 2 mps 745 mmHg 91%
08:00 +12°C° 0 mm 2 mps 746 mmHg 87%
09:00 +13°C° 0 mm 2 mps 746 mmHg 83%
10:00 +14°C° 0 mm 2 mps 747 mmHg 79%
11:00 +13°C° 0 mm 3 mps 747 mmHg 77%
12:00 +14°C° 0 mm 3 mps 747 mmHg 75%
13:00 +14°C° 0 mm 4 mps 748 mmHg 72%
14:00 +14°C° 0 mm 3 mps 748 mmHg 76%
15:00 +13°C° 0 mm 3 mps 748 mmHg 79%
16:00 +12°C° 0 mm 3 mps 748 mmHg 82%
17:00 +12°C° 0 mm 3 mps 748 mmHg 85%
18:00 +11°C° 0 mm 3 mps 748 mmHg 89%
19:00 +11°C° 0 mm 3 mps 749 mmHg 92%
20:00 +10°C° 0 mm 3 mps 749 mmHg 93%
21:00 +10°C° 0 mm 3 mps 749 mmHg 94%
22:00 +10°C° 0 mm 3 mps 749 mmHg 94%
23:00 +10°C° 0 mm 2 mps 749 mmHg 94%

Tomorrow, 25 October, Sunday

Time Temperature Precipitation Wind Pressure Humidity
00:00 +9°C° 0 mm 2 mps 750 mmHg 94%
01:00 +9°C° 0 mm 2 mps 750 mmHg 94%
02:00 +9°C° 0 mm 2 mps 750 mmHg 94%
03:00 +9°C° 0 mm 2 mps 750 mmHg 94%
04:00 +8°C° 0 mm 2 mps 749 mmHg 94%
05:00 +8°C° 0 mm 2 mps 750 mmHg 95%
06:00 +8°C° 0 mm 2 mps 750 mmHg 95%
07:00 +8°C° 0 mm 2 mps 750 mmHg 96%
08:00 +10°C° 0 mm 2 mps 750 mmHg 91%
09:00 +12°C° 0 mm 2 mps 750 mmHg 86%
10:00 +13°C° 0 mm 3 mps 750 mmHg 81%
11:00 +13°C° 0 mm 3 mps 750 mmHg 78%
12:00 +14°C° 0 mm 3 mps 750 mmHg 75%
13:00 +16°C° 0 mm 3 mps 750 mmHg 71%
14:00 +14°C° 0 mm 3 mps 750 mmHg 76%
15:00 +14°C° 0 mm 2 mps 749 mmHg 80%
16:00 +13°C° 0 mm 2 mps 749 mmHg 84%
17:00 +13°C° 0 mm 2 mps 749 mmHg 86%
18:00 +11°C° 0 mm 3 mps 749 mmHg 88%
19:00 +10°C° 0 mm 3 mps 750 mmHg 90%
20:00 +10°C° 0 mm 3 mps 749 mmHg 91%
21:00 +10°C° 0 mm 3 mps 749 mmHg 92%
22:00 +10°C° 0 mm 3 mps 749 mmHg 92%
23:00 +10°C° 0 mm 3 mps 749 mmHg 92%

Day after tomorrow, 26 October, Monday

Time Temperature Precipitation Wind Pressure Humidity
00:00 +9°C° 0 mm 3 mps 749 mmHg 91%
01:00 +9°C° 0 mm 3 mps 749 mmHg 91%
02:00 +8°C° 0 mm 4 mps 748 mmHg 91%
03:00 +8°C° 0 mm 4 mps 748 mmHg 90%
04:00 +8°C° 0 mm 4 mps 747 mmHg 90%
05:00 +8°C° 0 mm 4 mps 747 mmHg 90%
06:00 +10°C° 0 mm 4 mps 747 mmHg 91%
07:00 +9°C° 0 mm 5 mps 747 mmHg 91%
08:00 +10°C° 0 mm 5 mps 747 mmHg 89%
09:00 +12°C° 0 mm 5 mps 747 mmHg 87%
10:00 +11°C° 0 mm 6 mps 746 mmHg 85%
11:00 +13°C° 0 mm 5 mps 746 mmHg 84%
12:00 +14°C° 0 mm 5 mps 746 mmHg 82%
13:00 +14°C° 0 mm 5 mps 746 mmHg 80%
14:00 +14°C° 0 mm 4 mps 746 mmHg 80%
15:00 +14°C° 0 mm 4 mps 746 mmHg 80%
16:00 +14°C° 0 mm 4 mps 745 mmHg 80%
17:00 +14°C° 0.1 mm 4 mps 745 mmHg 80%
18:00 +14°C° 0.1 mm 4 mps 746 mmHg 80%
19:00 +14°C° 0.1 mm 4 mps 746 mmHg 80%
20:00 +13°C° 0 mm 5 mps 745 mmHg 82%
21:00 +13°C° 0 mm 5 mps 745 mmHg 84%
22:00 +12°C° 0 mm 5 mps 745 mmHg 86%
23:00 +12°C° 0 mm 4 mps 745 mmHg 87%

, 27 October, Tuesday

Time Temperature Precipitation Wind Pressure Humidity
00:00 +12°C° 0 mm 4 mps 745 mmHg 89%
01:00 +11°C° 0 mm 4 mps 745 mmHg 90%
02:00 +12°C° 0 mm 4 mps 745 mmHg 90%
03:00 +12°C° 0 mm 4 mps 745 mmHg 90%
04:00 +12°C° 0 mm 3 mps 745 mmHg 89%
05:00 +12°C° 0 mm 3 mps 746 mmHg 91%
06:00 +11°C° 0 mm 3 mps 746 mmHg 92%
07:00 +11°C° 0 mm 3 mps 746 mmHg 93%
08:00 +12°C° 0 mm 3 mps 746 mmHg 92%
09:00 +12°C° 0 mm 3 mps 746 mmHg 90%
10:00 +13°C° 0 mm 3 mps 747 mmHg 88%
11:00 +14°C° 0 mm 3 mps 747 mmHg 80%
12:00 +17°C° 0 mm 4 mps 747 mmHg 71%
13:00 +18°C° 0 mm 4 mps 747 mmHg 63%
14:00 +17°C° 0 mm 4 mps 747 mmHg 68%
15:00 +17°C° 0 mm 4 mps 746 mmHg 73%
16:00 +16°C° 0 mm 3 mps 746 mmHg 78%
17:00 +14°C° 0 mm 4 mps 746 mmHg 79%
18:00 +14°C° 0 mm 4 mps 746 mmHg 80%
19:00 +14°C° 0 mm 5 mps 746 mmHg 81%
20:00 +13°C° 0 mm 5 mps 747 mmHg 81%
21:00 +13°C° 0 mm 5 mps 747 mmHg 80%
22:00 +13°C° 0 mm 5 mps 747 mmHg 80%
23:00 +13°C° 0 mm 4 mps 747 mmHg 83%

27 October, Tuesday

Time Temperature Precipitation Wind Pressure Humidity
00:00 +12°C° 0 mm 4 mps 745 mmHg 89%
01:00 +11°C° 0 mm 4 mps 745 mmHg 90%
02:00 +12°C° 0 mm 4 mps 745 mmHg 90%
03:00 +12°C° 0 mm 4 mps 745 mmHg 90%
04:00 +12°C° 0 mm 3 mps 745 mmHg 89%
05:00 +12°C° 0 mm 3 mps 746 mmHg 91%
06:00 +11°C° 0 mm 3 mps 746 mmHg 92%
07:00 +11°C° 0 mm 3 mps 746 mmHg 93%
08:00 +12°C° 0 mm 3 mps 746 mmHg 92%
09:00 +12°C° 0 mm 3 mps 746 mmHg 90%
10:00 +13°C° 0 mm 3 mps 747 mmHg 88%
11:00 +14°C° 0 mm 3 mps 747 mmHg 80%
12:00 +17°C° 0 mm 4 mps 747 mmHg 71%
13:00 +18°C° 0 mm 4 mps 747 mmHg 63%
14:00 +17°C° 0 mm 4 mps 747 mmHg 68%
15:00 +17°C° 0 mm 4 mps 746 mmHg 73%
16:00 +16°C° 0 mm 3 mps 746 mmHg 78%
17:00 +14°C° 0 mm 4 mps 746 mmHg 79%
18:00 +14°C° 0 mm 4 mps 746 mmHg 80%
19:00 +14°C° 0 mm 5 mps 746 mmHg 81%
20:00 +13°C° 0 mm 5 mps 747 mmHg 81%
21:00 +13°C° 0 mm 5 mps 747 mmHg 80%
22:00 +13°C° 0 mm 5 mps 747 mmHg 80%
23:00 +13°C° 0 mm 4 mps 747 mmHg 83%

28 October, Wednesday

Time Temperature Precipitation Wind Pressure Humidity
00:00 +12°C° 0 mm 3 mps 747 mmHg 85%
01:00 +12°C° 0 mm 3 mps 747 mmHg 88%
02:00 +12°C° 0 mm 2 mps 748 mmHg 91%
03:00 +12°C° 0 mm 2 mps 748 mmHg 93%
04:00 +10°C° 0 mm 2 mps 748 mmHg 95%
05:00 +11°C° 0 mm 1 mps 748 mmHg 94%
06:00 +11°C° 0 mm 1 mps 749 mmHg 93%
07:00 +11°C° 0 mm 1 mps 749 mmHg 91%
08:00 +12°C° 0 mm 1 mps 749 mmHg 87%
09:00 +12°C° 0 mm 1 mps 749 mmHg 83%
10:00 +13°C° 0 mm 1 mps 750 mmHg 79%
11:00 +13°C° 0 mm 2 mps 750 mmHg 76%
12:00 +14°C° 0 mm 2 mps 750 mmHg 73%
13:00 +15°C° 0 mm 2 mps 750 mmHg 70%
14:00 +14°C° 0 mm 2 mps 750 mmHg 74%
15:00 +13°C° 0 mm 2 mps 749 mmHg 77%
16:00 +12°C° 0 mm 2 mps 749 mmHg 81%
17:00 +12°C° 0 mm 2 mps 749 mmHg 84%
18:00 +12°C° 0 mm 2 mps 749 mmHg 86%
19:00 +10°C° 0 mm 2 mps 749 mmHg 89%
20:00 +10°C° 0 mm 2 mps 749 mmHg 89%
21:00 +10°C° 0 mm 2 mps 749 mmHg 89%
22:00 +10°C° 0 mm 2 mps 749 mmHg 90%
23:00 +10°C° 0 mm 2 mps 749 mmHg 90%

29 October, Thursday

Time Temperature Precipitation Wind Pressure Humidity
00:00 +10°C° 0 mm 2 mps 749 mmHg 91%
01:00 +10°C° 0 mm 2 mps 749 mmHg 91%
02:00 +10°C° 0 mm 2 mps 749 mmHg 92%
03:00 +10°C° 0 mm 2 mps 749 mmHg 93%
04:00 +9°C° 0 mm 2 mps 749 mmHg 94%
05:00 +9°C° 0 mm 2 mps 749 mmHg 93%
06:00 +9°C° 0 mm 2 mps 749 mmHg 93%
07:00 +8°C° 0 mm 3 mps 749 mmHg 92%
08:00 +9°C° 0 mm 3 mps 749 mmHg 85%
09:00 +11°C° 0 mm 3 mps 749 mmHg 77%
10:00 +12°C° 0 mm 4 mps 750 mmHg 69%
11:00 +12°C° 0 mm 4 mps 749 mmHg 67%
12:00 +13°C° 0 mm 5 mps 749 mmHg 65%
13:00 +13°C° 0 mm 5 mps 749 mmHg 63%
14:00 +13°C° 0 mm 4 mps 750 mmHg 66%
15:00 +13°C° 0 mm 4 mps 750 mmHg 69%
16:00 +12°C° 0 mm 3 mps 750 mmHg 71%
17:00 +11°C° 0.1 mm 3 mps 750 mmHg 75%
18:00 +11°C° 0.1 mm 3 mps 751 mmHg 79%
19:00 +10°C° 0.1 mm 3 mps 751 mmHg 83%
20:00 +9°C° 0 mm 3 mps 751 mmHg 85%
21:00 +9°C° 0 mm 3 mps 752 mmHg 86%
22:00 +8°C° 0 mm 3 mps 752 mmHg 88%
23:00 +8°C° 0 mm 3 mps 752 mmHg 88%
Show more